User: anonymous   Login
Location: Unspecified
(0.0000°N, 0.0000°E)
Time: 23:15:36
(UTC+00:00)
Language:

STARLINK-35604 - Orbit

View from above orbital plane
View from above orbital plane
View from above satellite
View from above satellite

Ground track
Ground track

The orbit is defined by the following mean orbital elements,

1 66802U          26145.43084808 +.00000000 +00000-0 +46225-3 0 00000
2 66802  43.0025  41.1442 0001265 267.2467  92.8240 15.27589592    00
Epoch (UTC): 25 May 2026 10:20:25
Eccentricity: 0.0001265
inclination: 43.0025°
perigee height: 482 km
apogee height: 484 km
right ascension of ascending node: 41.1442°
argument of perigee: 267.2467°
revolutions per day: 15.27589592
mean anomaly at epoch: 92.8240°

The dashed part of the orbit path shows where the satellite is in the earth's shadow,  

DLR